| time (UTC) | temp F | wind direction | speed knots | gust knots | rain 1hr in | rain 24hr in | rain mn in | humidity % | barometer mb |
| 20260831180829 | 89 | 147 | 0.9 | 2.6 | 0.00 | 0.00 | 0.00 | 70 | |
| 20260831180259 | 88 | 137 | 0.9 | 1.7 | 0.00 | 0.00 | 0.00 | 73 | |
| 20260831175729 | 87 | 143 | 1.7 | 3.5 | 0.00 | 0.00 | 0.00 | 74 | |
| 20260831175159 | 87 | 148 | 1.7 | 3.5 | 0.00 | 0.00 | 0.00 | 75 | |
| 20260831174629 | 87 | 143 | 1.7 | 3.5 | 0.00 | 0.00 | 0.00 | 76 | |
| 20260831174059 | 86 | 146 | 0.9 | 2.6 | 0.00 | 0.00 | 0.00 | 77 | |
| 20260831173529 | 86 | 157 | 0.9 | 2.6 | 0.00 | 0.00 | 0.00 | 78 | |
| 20260831172959 | 86 | 160 | 0.9 | 3.5 | 0.00 | 0.00 | 0.00 | 80 | |
| 20260831172459 | 86 | 157 | 1.7 | 3.5 | 0.00 | 0.00 | 0.00 | 78 | |
| 20260831171959 | 86 | 141 | 0.9 | 2.6 | 0.00 | 0.00 | 0.00 | 76 | |
| 20260831171429 | 86 | 138 | 0.9 | 2.6 | 0.00 | 0.00 | 0.00 | 75 | |
| 20260831170859 | 86 | 142 | 0.9 | 2.6 | 0.00 | 0.00 | 0.00 | 76 | |
| 20260831170359 | 87 | 152 | 0.9 | 1.7 | 0.00 | 0.00 | 0.00 | 75 | |
| 20260831165829 | 87 | 160 | 0.9 | 1.7 | 0.00 | 0.00 | 0.00 | 73 | |
| 20260831165259 | 87 | 144 | 0.9 | 1.7 | 0.00 | 0.00 | 0.00 | 73 | |
| 20260831164759 | 87 | 152 | 0.9 | 2.6 | 0.00 | 0.00 | 0.00 | 72 | |
| 20260831164229 | 87 | 162 | 0.9 | 2.6 | 0.00 | 0.00 | 0.00 | 73 | |
| 20260831163729 | 87 | 161 | 0.9 | 1.7 | 0.00 | 0.00 | 0.00 | 73 | |
| 20260831163159 | 87 | 147 | 0.9 | 1.7 | 0.00 | 0.00 | 0.00 | 73 | |
| 20260831162659 | 87 | 139 | 0.9 | 1.7 | 0.00 | 0.00 | 0.00 | 72 | |
| 20260831162129 | 87 | 148 | 0.0 | 1.7 | 0.00 | 0.00 | 0.00 | 72 |